This is the latest recevied weather packets stored in our database for station/object KB0BDN-13. If no packets are shown the sender has not sent any weather packets the latest 10 day(s).
| Time | Temp. | Humidity | Pressure | Rain* | Wind** | Luminosity | Snow |
|---|---|---|---|---|---|---|---|
| 1778180526 | 5.56° C | 45% | 1002.5 hPa | 0 mm | - | - | - |
| 1778179626 | 6.11° C | 43% | 1002.6 hPa | 0 mm | - | - | - |
| 1778178726 | 6.11° C | 45% | 1002.5 hPa | 0 mm | - | - | - |
| 1778177825 | 5.56° C | 45% | 1002.7 hPa | 0 mm | - | - | - |
| 1778176925 | 5.56° C | 43% | 1002.7 hPa | 0 mm | - | - | - |
| 1778176025 | 5.56° C | 44% | 1002.9 hPa | 0 mm | - | - | - |
| 1778175125 | 6.11° C | 48% | 1003 hPa | 0 mm | - | - | - |
| 1778174225 | 5.56° C | 46% | 1003 hPa | 0 mm | - | - | - |
| 1778173325 | 5° C | 50% | 1003.1 hPa | 0 mm | - | - | - |
| 1778172425 | 4.44° C | 52% | 1003.3 hPa | 0 mm | - | - | - |
| 1778171525 | 4.44° C | 54% | 1003.5 hPa | 0 mm | - | - | - |
| 1778170625 | 3.33° C | 58% | 1003.6 hPa | 0 mm | - | - | - |
| 1778169725 | 2.78° C | 59% | 1003.7 hPa | 0 mm | - | - | - |
| 1778168825 | 2.78° C | 61% | 1003.7 hPa | 0 mm | - | - | - |
| 1778167925 | 2.78° C | 62% | 1003.6 hPa | 0 mm | - | - | - |
| 1778167025 | 1.67° C | 68% | 1003.9 hPa | 0 mm | - | - | - |
| 1778166125 | 1.67° C | 67% | 1003.9 hPa | 0 mm | - | - | - |
| 1778165225 | 1.67° C | 68% | 1003.9 hPa | 0 mm | - | - | - |
| 1778164325 | 2.22° C | 67% | 1003.9 hPa | 0 mm | - | - | - |
| 1778163425 | 1.11° C | 70% | 1004 hPa | 0 mm | - | - | - |
| 1778162525 | 0.56° C | 71% | 1004.4 hPa | 0 mm | - | - | - |
| 1778161625 | 0° C | 74% | 1004.5 hPa | 0 mm | - | - | - |
| 1778160725 | 0° C | 77% | 1004.5 hPa | 0 mm | - | - | - |
| 1778159825 | 0° C | 77% | 1004.6 hPa | 0 mm | - | - | - |
| 1778158925 | -0.56° C | 79% | 1004.6 hPa | 0 mm | - | - | - |
* Rain latest hour (hover to see other rain measurements)
** Current wind speed in m/s (hover to see current wind gust speed)